Weather History for Marshall, TX

Change the Weather History Date:

Saturday, March 10, 2012

  Actual Average (KGGG) Record (KGGG)
Temperature  
Mean Temperature 52 °F 56 °F  
Max Temperature 60 °F 68 °F 90 °F (1911)
Min Temperature 44 °F 45 °F 23 °F (1996)
Degree Days  
Heating Degree Days 13 9  
Month to date heating degree days 104  
Since 1 July heating degree days 2008  
Cooling Degree Days 0 1  
Month to date cooling degree days 10  
Year to date cooling degree days 22  
Growing Degree Days 2 (Base 50)    
Moisture  
Dew Point 35 °F    
Average Humidity 53    
Maximum Humidity 88    
Minimum Humidity 36    
Precipitation  
Precipitation 0.01 in 0.14 in 1.86 in (1953)
Month to date precipitation 1.39  
Year to date precipitation 8.75  
Snow  
Snow 0.00 in - - ()
Month to date snowfall  
Since 1 July snowfall  
Snow Depth -    
Sea Level Pressure  
Sea Level Pressure 30.30 in    
Wind  
Wind Speed 4 mph (ENE)    
Max Wind Speed 14 mph    
Max Gust Speed 20 mph    
Visibility 10 miles    
Events      
T = Trace of Precipitation, MM = Missing Value Source: NWS Daily Summary

Daily Weather History Graph

Daily Weather History Graph

Search for Another Location

Airport:

Trip Planner

Search our weather history database for the weather conditions in past years. The results will help you decide how hot, cold, wet, or windy it might be!

Date:

Astronomy

Mar. 10, 2012 Rise Set
Actual Time 6:33 AM CST 6:21 PM CST
Civil Twilight 6:08 AM CST 6:46 PM CST
Nautical Twilight 5:40 AM CST 7:14 PM CST
Astronomical Twilight 5:11 AM CST 7:43 PM CST
Moon 9:20 PM CST (3/10) 7:41 AM CST (3/10)
Length of Visible Light 12h 37m
Length of Day
11h 48m
Waning Gibbous, 92% of the Moon is Illuminated
Mar 10
Waning Gibbous
Mar 14
Last Quarter
Mar 22
New
Mar 30
First Quarter
Apr 6
Full

Hourly Weather History & Observations

Time (CST) Temp. Windchill Dew Point Humidity Pressure Visibility Wind Dir Wind Speed Gust Speed Precip Events Conditions
12:15 AM 50.0 °F - 33.8 °F 54% 30.36 in 10.0 mi NNE 3.5 mph - N/A   Clear
12:35 AM 50.0 °F - 35.6 °F 58% 30.35 in 10.0 mi NNE 3.5 mph - N/A   Clear
12:55 AM 50.0 °F - 33.8 °F 54% 30.34 in 10.0 mi NNE 4.6 mph - N/A   Clear
1:15 AM 50.0 °F - 33.8 °F 54% 30.34 in 10.0 mi North 5.8 mph - N/A   Scattered Clouds
1:35 AM 50.0 °F - 35.6 °F 58% 30.34 in 10.0 mi Calm Calm - N/A   Overcast
1:55 AM 50.0 °F - 35.6 °F 58% 30.34 in 10.0 mi Calm Calm - N/A   Overcast
2:15 AM 50.0 °F - 37.4 °F 62% 30.33 in 10.0 mi Calm Calm - N/A   Overcast
2:35 AM 50.0 °F - 37.4 °F 62% 30.32 in 10.0 mi Calm Calm - N/A   Overcast
2:55 AM 50.0 °F - 35.6 °F 58% 30.32 in 10.0 mi ENE 5.8 mph - N/A   Scattered Clouds
3:15 AM 46.4 °F 44.3 °F 33.8 °F 62% 30.32 in 10.0 mi NE 4.6 mph - N/A   Clear
3:35 AM 46.4 °F - 33.8 °F 62% 30.32 in 10.0 mi Calm Calm - N/A   Clear
3:55 AM 46.4 °F 44.3 °F 33.8 °F 62% 30.31 in 10.0 mi NE 4.6 mph - N/A   Clear
4:15 AM 46.4 °F 45.2 °F 35.6 °F 66% 30.31 in 10.0 mi NE 3.5 mph - N/A   Clear
4:35 AM 46.4 °F 45.2 °F 35.6 °F 66% 30.32 in 10.0 mi NE 3.5 mph - N/A   Clear
4:55 AM 46.4 °F - 33.8 °F 62% 30.32 in 10.0 mi Calm Calm - N/A   Clear
5:15 AM 44.6 °F - 33.8 °F 66% 30.34 in 10.0 mi Calm Calm - N/A   Clear
5:35 AM 44.6 °F - 33.8 °F 66% 30.35 in 10.0 mi Calm Calm - N/A   Scattered Clouds
5:55 AM 44.6 °F - 35.6 °F 71% 30.35 in 10.0 mi Calm Calm - N/A   Mostly Cloudy
6:15 AM 44.6 °F - 35.6 °F 71% 30.35 in 10.0 mi Calm Calm - N/A   Overcast
6:35 AM 44.6 °F 43.1 °F 35.6 °F 71% 30.35 in 10.0 mi NNE 3.5 mph - N/A   Overcast
6:55 AM 44.6 °F - 35.6 °F 71% 30.34 in 10.0 mi Calm Calm - N/A   Overcast
7:15 AM 44.6 °F 43.1 °F 35.6 °F 71% 30.34 in 10.0 mi NE 3.5 mph - N/A   Mostly Cloudy
7:35 AM 44.6 °F 43.1 °F 33.8 °F 66% 30.35 in 10.0 mi NE 3.5 mph - N/A   Overcast
7:55 AM 46.4 °F 44.3 °F 35.6 °F 66% 30.35 in 10.0 mi NE 4.6 mph - N/A   Overcast
8:15 AM 46.4 °F 43.5 °F 33.8 °F 62% 30.35 in 10.0 mi ENE 5.8 mph - N/A   Overcast
8:35 AM 50.0 °F - 35.6 °F 58% 30.36 in 10.0 mi ENE 8.1 mph - N/A   Overcast
8:55 AM 50.0 °F - 35.6 °F 58% 30.36 in 10.0 mi ENE 8.1 mph - N/A   Overcast
9:15 AM 50.0 °F - 33.8 °F 54% 30.37 in 10.0 mi ENE 4.6 mph - N/A   Overcast
9:35 AM 50.0 °F - 33.8 °F 54% 30.37 in 10.0 mi East 5.8 mph - N/A   Overcast
9:55 AM 51.8 °F - 35.6 °F 54% 30.36 in 10.0 mi East 6.9 mph - N/A   Overcast
10:15 AM 55.4 °F - 33.8 °F 44% 30.36 in 10.0 mi ENE 8.1 mph - N/A   Overcast
10:35 AM 55.4 °F - 32.0 °F 41% 30.34 in 10.0 mi East 11.5 mph 16.1 mph N/A   Overcast
10:55 AM 55.4 °F - 32.0 °F 41% 30.34 in 10.0 mi East 13.8 mph 19.6 mph N/A   Mostly Cloudy
11:15 AM 55.4 °F - 32.0 °F 41% 30.33 in 10.0 mi East 11.5 mph 18.4 mph N/A   Mostly Cloudy
11:35 AM 55.4 °F - 32.0 °F 41% 30.31 in 10.0 mi ENE 5.8 mph 16.1 mph N/A   Scattered Clouds
11:55 AM 57.2 °F - 32.0 °F 38% 30.30 in 10.0 mi East 8.1 mph - N/A   Clear
12:15 PM 57.2 °F - 32.0 °F 38% 30.29 in 10.0 mi ENE 5.8 mph - N/A   Clear
12:35 PM 59.0 °F - 32.0 °F 36% 30.27 in 10.0 mi ENE 8.1 mph - N/A   Scattered Clouds
12:55 PM 59.0 °F - 32.0 °F 36% 30.26 in 10.0 mi East 4.6 mph - N/A   Mostly Cloudy
1:15 PM 59.0 °F - 32.0 °F 36% 30.26 in 10.0 mi East 8.1 mph - N/A   Overcast
1:35 PM 59.0 °F - 32.0 °F 36% 30.25 in 10.0 mi ENE 4.6 mph - N/A   Overcast
1:55 PM 59.0 °F - 32.0 °F 36% 30.24 in 10.0 mi ENE 6.9 mph - N/A   Overcast
2:15 PM 59.0 °F - 33.8 °F 39% 30.24 in 10.0 mi East 3.5 mph - N/A   Overcast
2:35 PM 59.0 °F - 33.8 °F 39% 30.23 in 10.0 mi East 3.5 mph - N/A   Overcast
2:55 PM 60.8 °F - 33.8 °F 36% 30.21 in 10.0 mi Calm Calm - N/A   Overcast
3:15 PM 60.8 °F - 33.8 °F 36% 30.20 in 10.0 mi ENE 3.5 mph - N/A   Overcast
3:35 PM 60.8 °F - 33.8 °F 36% 30.19 in 10.0 mi ENE 4.6 mph - N/A   Overcast
3:55 PM 60.8 °F - 33.8 °F 36% 30.19 in 10.0 mi ENE 5.8 mph - N/A   Scattered Clouds
4:15 PM 60.8 °F - 35.6 °F 39% 30.17 in 10.0 mi ENE 4.6 mph - N/A   Clear
4:35 PM 60.8 °F - 37.4 °F 42% 30.18 in 10.0 mi East 3.5 mph - N/A   Clear
4:55 PM 59.0 °F - 37.4 °F 45% 30.18 in 10.0 mi Calm Calm - N/A   Clear
5:15 PM 59.0 °F - 37.4 °F 45% 30.17 in 10.0 mi Calm Calm - N/A   Clear
5:35 PM 57.2 °F - 42.8 °F 59% 30.18 in 10.0 mi Calm Calm - N/A   Mostly Cloudy
5:55 PM 53.6 °F - 46.4 °F 77% 30.17 in 7.0 mi Calm Calm - 0.01 in   Mostly Cloudy
6:15 PM 51.8 °F - 48.2 °F 88% 30.18 in 10.0 mi Calm Calm - N/A   Overcast
6:35 PM 51.8 °F - 48.2 °F 88% 30.17 in 10.0 mi Calm Calm - N/A   Mostly Cloudy
6:55 PM 51.8 °F - 50.0 °F 94% 30.18 in 10.0 mi Calm Calm - N/A   Mostly Cloudy
7:15 PM 51.8 °F - 48.2 °F 88% 30.18 in 10.0 mi Calm Calm - N/A   Overcast
7:35 PM 51.8 °F - 50.0 °F 94% 30.17 in 10.0 mi Calm Calm - N/A   Mostly Cloudy
7:55 PM 51.8 °F - 50.0 °F 94% 30.17 in 10.0 mi Calm Calm - N/A   Mostly Cloudy
8:15 PM 51.8 °F - 48.2 °F 88% 30.17 in 10.0 mi Calm Calm - N/A   Mostly Cloudy
8:35 PM 55.4 °F - 50.0 °F 82% 30.19 in 10.0 mi Calm Calm - N/A   Mostly Cloudy
8:55 PM 55.4 °F - 50.0 °F 82% 30.23 in 10.0 mi WSW 4.6 mph - N/A   Overcast
9:15 PM 53.6 °F - 46.4 °F 77% 30.24 in 2.5 mi ENE 3.5 mph - 0.08 in   Overcast
9:35 PM 51.8 °F - 50.0 °F 94% 30.21 in 5.0 mi East 3.5 mph - 0.13 in   Overcast
9:55 PM 51.8 °F - 48.2 °F 88% 30.14 in 5.0 mi East 9.2 mph 19.6 mph 0.18 in   Overcast
10:15 PM 51.8 °F - 46.4 °F 82% 30.16 in 10.0 mi East 8.1 mph - 0.01 in   Overcast
10:35 PM 51.8 °F - 48.2 °F 88% 30.17 in 10.0 mi ESE 3.5 mph - 0.01 in   Overcast
10:55 PM 51.8 °F - 46.4 °F 82% 30.17 in 10.0 mi ENE 3.5 mph - 0.01 in   Overcast
11:15 PM 51.8 °F - 46.4 °F 82% 30.17 in 10.0 mi Calm Calm - N/A   Overcast
11:35 PM 51.8 °F - 48.2 °F 88% 30.19 in 10.0 mi Calm Calm - 0.01 in   Overcast
11:55 PM 50.0 °F - 46.4 °F 87% 30.19 in 10.0 mi Calm Calm - 0.01 in   Overcast